Content
SEND FEEDBACK

Daily
Averages
Monthly
Summary
Mexico

LEONA VICARIO, QUINTANA ROO


Home > North America > Mexico > Quintana Roo
Elevation: 26 feet     Latitude: 20 59N     Longitude: 087 12W

WEATHER
 
SELECT A DAY
Number of Records: 163,931;   Date Range: 1/1/95 - 8/31/14
 
SHARE

PRINT THIS DATA

[ ← Previous Day ]
WEATHER ALMANAC - APRIL 7, 2013
[ Next Day → ]
[ °C ]   °F
Weather ElementAverageHighLow
Temperature75.5 °F82.4 °F (1:40 pm)64.4 °F (5:40 am)
Dewpoint63.7 °F68 °F (9:41 am)59 °F (3:49 pm)
Humidity67.8 %88 % (5:40 am)48 % (1:40 pm)
Barometer29.99 in30.05 in (10:45 am)29.95 in (3:40 am)
Wind Speed7.3 mph16.1 mph (4:41 pm)
Weather ElementAverage
Visibility7 mi
Wind DirectionESE (108.3 °)

Weather ElementTotal
Precipitation---
Cooling Degree Days8.4 (Base 65)
Growing Degree Days23.4 (Base 50)
Averaged from 24 records on April 7, 2013
WEATHER CONDITIONS BREAKOUT
WIND DIRECTION BREAKOUT
WEATHER BY HOUR - APRIL 7, 2013
[ °C ]   °F
Local TimeTemperatureDewpointHumidityBarometerVisibilityWind DirectionWind SpeedGust SpeedPrecipitationEventsConditions
12:45 AM75.2 °F64.4 °F69 %29.97 in7.0 miEast (90°)5.8 mphScattered Clouds
1:50 AM71.6 °F62.6 °F73 %29.97 in7.0 miNE (50°)3.5 mphScattered Clouds
3:40 AM71.6 °F62.6 °F73 %29.95 in7.0 miENE (70°)3.5 mphScattered Clouds
4:47 AM69.8 °F62.6 °F78 %29.96 in7.0 miNNW (340°)2.3 mphScattered Clouds
5:40 AM64.4 °F60.8 °F88 %29.97 in7.0 miNorth (360°)3.5 mphScattered Clouds
6:42 AM68.0 °F64.4 °F88 %29.97 in7.0 miNE (40°)5.8 mphScattered Clouds
7:44 AM71.6 °F66.2 °F83 %30.00 in7.0 miNE (40°)2.3 mphMostly Cloudy
8:40 AM71.6 °F66.2 °F83 %30.01 in7.0 miENE (70°)4.6 mphMostly Cloudy
9:41 AM75.2 °F68.0 °F78 %30.04 in7.0 miNE (50°)4.6 mphMostly Cloudy
10:45 AM78.8 °F64.4 °F61 %30.05 in7.0 miENE (70°)4.6 mphMostly Cloudy
11:40 AM78.8 °F66.2 °F65 %30.04 in7.0 miENE (60°)6.9 mphMostly Cloudy
12:47 PM80.6 °F64.4 °F58 %30.02 in7.0 miEast (80°)8.1 mphMostly Cloudy
1:40 PM82.4 °F60.8 °F48 %30.00 in7.0 miEast (100°)10.4 mphMostly Cloudy
2:47 PM82.4 °F60.8 °F48 %29.97 in7.0 miSSE (150°)6.9 mphMostly Cloudy
3:49 PM80.6 °F59.0 °F48 %29.97 in7.0 miSE (130°)11.5 mphScattered Clouds
4:41 PM80.6 °F60.8 °F51 %29.95 in7.0 miEast (100°)16.1 mphMostly Cloudy
5:43 PM78.8 °F64.4 °F61 %29.96 in7.0 miEast (100°)13.8 mphMostly Cloudy
6:42 PM77.0 °F64.4 °F65 %29.97 in7.0 miESE (120°)10.4 mphMostly Cloudy
7:51 PM77.0 °F64.4 °F65 %29.97 in7.0 miEast (90°)9.2 mphMostly Cloudy
8:55 PM75.2 °F64.4 °F69 %29.98 in7.0 miESE (110°)5.8 mphScattered Clouds
8:59 PM75.2 °F64.4 °F69 %29.98 in7.0 miESE (110°)5.8 mphScattered Clouds
9:48 PM75.2 °F64.4 °F69 %29.98 in7.0 miENE (70°)9.2 mphScattered Clouds
10:47 PM75.2 °F64.4 °F69 %30.01 in7.0 miEast (100°)10.4 mphScattered Clouds
11:46 PM75.2 °F64.4 °F69 %30.00 in7.0 miEast (100°)9.2 mphScattered Clouds
Hourly data recorded from MMUN, located miles away from Leona Vicario, Quintana Roo







STORIES FROM OUR PARTNERS